FW3095 Weather Reports


Display with metric or nautical units.
time (UTC)temp
F
wind
direction
speed
MPH
gust
MPH
rain 1hr
in
rain 24hr
in
rain mn
in
humidity
%
barometer
mb
20260902094505 72 224 0.0 1.0 0.00 0.00 0.00 96 987.9
20260902093005 71 218 0.0 2.0 0.00 0.00 0.00 99 987.9
20260902091505 71 198 0.0 0.0 0.00 0.00 0.00 97 987.9
20260902090001 71 198 0.0 0.0 0.00 0.00 0.00 97 987.8
20260902084602 71 198 0.0 0.0 0.00 0.00 0.00 97 987.8
20260902083100 72 198 0.0 0.0 0.00 0.00 0.00 96 987.6
20260902081559 73 198 0.0 0.0 0.00 0.00 0.00 97 987.8
20260902080059 72 198 0.0 0.0 0.00 0.00 0.00 98 987.8
20260902074604 72 198 0.0 1.0 0.00 0.00 0.00 99 987.6
20260902073059 72 198 0.0 0.0 0.00 0.00 0.00 99 987.6
20260902071556 72 198 0.0 0.0 0.00 0.00 0.00 99 987.7
20260902070055 71 198 0.0 0.0 0.00 0.00 0.00 98 987.7
20260902064554 72 198 0.0 0.0 0.00 0.00 0.00 98 987.7
20260902063052 73 198 0.0 0.0 0.00 0.00 0.00 98 987.7
20260902061601 73 198 0.0 0.0 0.00 0.00 0.00 98 987.8
20260902060058 73 198 0.0 0.0 0.00 0.00 0.00 99 987.8
20260902054608 73 198 0.0 0.0 0.00 0.00 0.00 98 987.9
20260902053100 73 198 0.0 0.0 0.00 0.00 0.00 98 987.8
20260902051547 73 198 0.0 0.0 0.00 0.00 0.00 98 987.8
20260902050046 73 269 0.0 0.0 0.00 0.00 0.00 98 987.8
20260902044544 74 269 0.0 0.0 0.00 0.00 0.00 97 987.7
20260902043045 74 269 0.0 0.0 0.00 0.00 0.00 98 987.8
20260902041540 75 269 0.0 0.0 0.00 0.00 0.00 97 987.7
20260902040046 75 269 0.0 0.0 0.00 0.00 0.00 97 987.7
20260902034538 75 269 0.0 0.0 0.00 0.00 0.00 96 987.7
20260902033036 76 269 0.0 0.0 0.00 0.00 0.00 97 987.6
20260902031540 76 269 0.0 0.0 0.00 0.00 0.00 96 987.7
20260902030034 76 269 0.0 0.0 0.00 0.00 0.00 96 987.8
20260902024538 77 269 0.0 0.0 0.00 0.00 0.00 95 987.8
20260902023036 77 269 0.0 0.0 0.00 0.00 0.00 95 987.8
20260902021532 78 269 0.0 0.0 0.00 0.00 0.00 94 987.7
20260902020031 78 269 0.0 0.0 0.00 0.00 0.00 93 987.7
20260902014531 79 269 0.0 0.0 0.00 0.00 0.00 92 987.7
20260902013030 79 269 0.0 0.0 0.00 0.00 0.00 92 987.6
20260902011533 79 269 0.0 0.0 0.00 0.00 0.00 91 987.5
20260902010032 80 269 0.0 0.0 0.00 0.00 0.00 89 987.2
20260902004529 81 269 0.0 0.0 0.00 0.00 0.00 87 987.2
20260902003031 83 269 0.0 0.0 0.00 0.00 0.00 85 987.0
20260902001536 86 269 0.0 0.0 0.00 0.00 0.00 81 987.1
20260902000034 89 269 0.0 0.0 0.00 0.00 0.00 78 987.2
20260901234526 90 269 0.0 0.0 0.00 0.00 0.00 78 987.3
20260901233026 90 269 0.0 0.0 0.00 0.00 0.00 77 987.3
20260901231526 91 269 1.0 3.0 0.00 0.00 0.00 75 987.3
20260901230025 91 269 1.0 2.0 0.00 0.00 0.00 74 987.3
20260901224525 92 232 1.0 4.0 0.00 0.00 0.00 74 987.4
20260901223024 92 259 1.0 5.0 0.00 0.00 0.00 73 987.3
20260901221521 93 229 0.0 4.0 0.00 0.00 0.00 73 987.2
20260901220020 92 268 2.0 4.0 0.00 0.00 0.00 72 987.3
20260901214512 92 233 2.0 5.0 0.00 0.00 0.00 72 987.2
20260901213012 92 226 2.0 6.0 0.00 0.00 0.00 71 987.4
20260901211506 92 240 3.0 7.0 0.00 0.00 0.00 71 987.3
20260901210001 92 270 3.0 7.0 0.00 0.00 0.00 72 987.3
20260901204556 92 211 4.0 9.0 0.00 0.00 0.00 72 987.4
20260901203056 92 227 3.0 7.0 0.00 0.00 0.00 72 987.4
20260901201547 92 224 3.0 8.0 0.00 0.00 0.00 72 987.5
20260901200045 91 242 5.0 9.0 0.00 0.00 0.00 71 987.6
20260901194545 91 260 4.0 9.0 0.00 0.00 0.00 73 987.6
20260901193039 91 232 4.0 8.0 0.00 0.00 0.00 71 987.7
20260901191555 91 236 4.0 10.0 0.00 0.00 0.00 72 987.8
20260901190038 91 228 5.0 10.0 0.00 0.00 0.00 72 987.7
20260901184545 91 240 4.0 9.0 0.00 0.00 0.00 74 987.8
20260901183045 90 200 2.0 8.0 0.00 0.00 0.00 72 987.9
20260901181532 90 220 3.0 10.0 0.00 0.00 0.00 73 987.8
20260901180032 90 269 2.0 9.0 0.00 0.00 0.00 75 987.7
20260901174528 89 259 2.0 9.0 0.00 0.00 0.00 74 987.9
20260901173026 89 226 4.0 6.0 0.00 0.00 0.00 77 988.0
20260901171526 88 240 5.0 8.0 0.00 0.00 0.00 75 988.1
20260901170024 88 217 2.0 5.0 0.00 0.00 0.00 78 988.1
20260901164536 88 233 3.0 6.0 0.00 0.00 0.00 76 988.3
20260901163019 87 241 4.0 8.0 0.00 0.00 0.00 77 988.3
20260901161539 86 234 3.0 8.0 0.00 0.00 0.00 77 988.4
20260901160017 86 249 5.0 8.0 0.00 0.00 0.00 76 988.5
20260901154514 86 231 5.0 10.0 0.00 0.00 0.00 78 988.5
20260901153013 85 198 4.0 10.0 0.00 0.00 0.00 77 988.6
20260901151510 85 157 3.0 8.0 0.00 0.00 0.00 78 988.5
20260901150009 84 238 3.0 7.0 0.00 0.00 0.00 79 988.7
20260901144505 84 274 5.0 9.0 0.00 0.00 0.00 78 988.7
20260901143004 83 226 4.0 9.0 0.00 0.00 0.00 79 988.8
20260901141600 83 253 3.0 6.0 0.00 0.00 0.00 81 988.6
20260901140100 82 239 2.0 7.0 0.00 0.00 0.00 82 988.7
20260901134554 81 266 2.0 5.0 0.00 0.00 0.00 84 988.8
20260901133051 80 238 2.0 6.0 0.00 0.00 0.00 85 989.0
20260901131548 79 233 3.0 6.0 0.00 0.00 0.00 86 989.1
20260901130056 78 229 2.0 5.0 0.00 0.00 0.00 87 989.0
20260901124542 78 243 0.0 3.0 0.00 0.00 0.00 88 988.9
20260901123039 77 241 0.0 2.0 0.00 0.00 0.00 91 988.8
20260901121538 75 215 0.0 2.0 0.00 0.00 0.00 93 988.6
20260901120039 73 219 0.0 0.0 0.00 0.00 0.00 96 988.6
20260901114538 0 0.0 0.0 0.00 0.00 0.00 988.5
20260901113028 0 0.0 0.0 0.00 0.00 0.00 988.3
20260901111524 0 0.0 0.0 0.00 0.00 0.00 988.1
20260901110019 0 0.0 0.0 0.00 0.00 0.00 988.0
20260901104515 0 224 0.0 1.0 0.00 0.00 0.00 987.9
20260901103011 73 219 0.0 1.0 0.00 0.00 0.00 94 988.1
20260901101509 74 219 1.0 4.0 0.00 0.00 0.00 93 988.0
20260901100006 74 238 1.0 5.0 0.00 0.00 0.00 93 987.9